Regional Weather Roundup
Issued by NWS Grand Forks, ND

Home | Current Version | Previous Version | Graphics & Text | Print | Product List | Glossary Off
Versions: 1 2 3 4 5 6 7 8 9 10 11 12 13 14 15 16 17 18 19 20 21 22 23 24 25 26 27 28 29 30 31 32 33 34 35 36 37 38 39 40 41 42 43 44 45 46 47 48 49 50

533
ASUS43 KFGF 151310
RWRFGF
PRAIRIE TO PINES  WEATHER ROUNDUP
NATIONAL WEATHER SERVICE EASTERN NORTH DAKOTA/GRAND FORKS ND
700 AM CST FRI DEC 15 2017

 **SATELLITE DATA USED TO AUGMENT SKY COVER AT AUTOMATED STATIONS**
 *****  WEATHER ACROSS EASTERN NORTH DAKOTA  *****

CITY           SKY/WX    TMP DP  RH WIND       PRES   REMARKS
GRAND FORKS    LGT SNOW  17  15  92 S3        29.88F FOG
GRAND FRKS AFB FLURRIES  18  14  86 S5        29.87F WCI  11
GRAND FRKS NWS   N/A     18 N/A N/A VRB1        N/A
DEVILS LAKE    FLURRIES  21  19  93 SE8       29.80F WCI  12
FARGO          LGT SNOW  19  15  84 E5        29.89F FOG     WCI  12
WAHPETON ARPT    N/A     21  18  86 CALM      29.90F
$$

 ***** WEATHER ACROSS CENTRAL AND WESTERN NORTH DAKOTA  *****

CITY           SKY/WX    TMP DP  RH WIND       PRES   REMARKS
BISMARCK       CLOUDY    29  23  78 S5        29.81F WCI  24
MINOT          CLOUDY    30  24  78 SE3       29.73F
JAMESTOWN      CLOUDY    23  22  96 S7        29.82F WCI  15
MINOT AFB      CLOUDY    29  24  82 S3        29.72F
GARRISON         N/A     29  25  85 S5        29.75F WCI  24
WILLISTON      CLOUDY    29  24  82 S5        29.71F WCI  24
DICKINSON      CLOUDY    29  24  82 SW10      29.73F WCI  20
HETTINGER      FAIR      26  21  81 W7        29.79F WCI  18
$$

 *****  OTHER AIRPORT OBSERVATIONS IN OUR AREA  *****

CITY           SKY/WX    TMP DP  RH WIND       PRES   REMARKS
WALHALLA       FAIR      16  16 100 SE7       29.84F FOG     WCI   6
GRAFTON AIRPOR CLOUDY    16  14  93 SE7       29.90F FOG     WCI   6
VALLEY CITY AR LGT SNOW  19  19 100 S9        29.86F WCI   9
CANDO          CLOUDY    23  23 100 S8        29.80F WCI  14
CAVALIER APRT  PTSUNNY   14  12  92 SE5       29.86F FOG     WCI   6
GWINNER          N/A     23  21  93 SE7       29.87S WCI  15
SHEYENNE NWR     N/A     20  19  96 E2        29.95S
ROLLA          CLOUDY    21  21 100 S8        29.75F WCI  12
 ***** THE ABOVE OBSERVATIONS ARE NON NWS ARE NOT QUALITY
       CONTROLLED AND MAY MIS-REPORT RAIN FOR SNOW...
$$

  *****  WEATHER ACROSS NORTHERN MINNESOTA  *****

CITY           SKY/WX    TMP DP  RH WIND       PRES   REMARKS
FLAG ISLAND    CLOUDY     5   1  85 CALM      29.86F
WARROAD        CLOUDY     7   3  85 CALM      29.87F
ROSEAU         CLOUDY     9   3  78 CALM      29.87F
HALLOCK        FLURRIES  14  10  85 SE5       29.88F WCI   6
THF RVR FALLS  CLOUDY     8   5  87 CALM      29.87F
BAUDETTE       CLOUDY     8   3  80 CALM      29.86S
WASKISH        CLOUDY     9   3  78 CALM      29.87S
CROOKSTON      LGT SNOW  16  12  86 CALM      29.90F
STEPHEN NDAWN    N/A     12  10  92 E3          N/A
GREENBUSH NDAW   N/A      3   1  92 CALM        N/A
$$
  *****  WEATHER ACROSS CENTRAL AND WEST MINNESOTA  *****

CITY           SKY/WX    TMP DP  RH WIND       PRES   REMARKS
FOSSTON        MOCLDY     1   0  92 CALM      29.86F
BEMIDJI        CLOUDY     8   4  85 CALM      29.85S
PARK RAPIDS    MOCLDY    11   7  84 N6        29.84S WCI   1
ELBOW LAKE     CLOUDY    21  17  85 CALM      29.88S
WADENA         FAIR      12  10  92 W3        29.85F
DETROIT LAKES  FAIR      16  14  93 W3        29.87S
MOORHEAD       MIX PCPN  19  16  86 CALM      29.90S
FERGUS FALLS   CLOUDY    19  16  86 NE5       29.92S WCI  13
MORRIS MN      CLOUDY    25  21  86 CALM      29.87F
STAPLES        CLOUDY     7   3  85 W3        29.86S
$$
  *****  WEATHER ELSEWHERE ACROSS MINNESOTA  *****

CITY           SKY/WX    TMP DP  RH WIND       PRES   REMARKS
DULUTH         LGT SNOW  10   6  84 NW6       29.81F FOG     WCI   0
INTRNTL FALLS  CLOUDY     7   1  76 W6        29.85F WCI  -3
ELY            FLURRIES   7   1  78 NW6       29.80S WCI  -3
CLOQUET        FLURRIES  12   7  79 W8        29.83F WCI   1
WHEATON        FLURRIES  23  21  93 CALM      29.92S
BRAINERD       MOCLDY    15   9  76 NW3       29.86F
HIBBING        CLOUDY     8   3  80 NW10      29.83F WCI  -6
ALEXANDRIA     CLOUDY    20  15  81 N6        29.86F WCI  12
SAINT CLOUD    CLOUDY    16  14  92 CALM      29.88F
MINNEAPOLIS    MOCLDY    22  19  89 NW3       29.89F
$$

  *****  WEATHER ACROSS SOUTH DAKOTA  *****

CITY           SKY/WX    TMP DP  RH WIND       PRES   REMARKS
SIOUX FALLS    CLOUDY    32  28  85 W9        29.92F WCI  24
BROOKINGS      CLOUDY    30  26  85 W10       29.88F WCI  21
WATERTOWN      CLOUDY    27  26  96 W6        29.85F WCI  20
HURON          FAIR      30  26  85 W9        29.90F WCI  22
SISSETON         N/A     24  22  91 CALM      29.88F
ABERDEEN       CLOUDY    29  25  85 W7        29.87F WCI  22
MITCHELL       FAIR      30  24  78 W10       29.94F WCI  21
PIERRE         FAIR      25  22  88 SW7       29.89F WCI  17
MOBRIDGE       CLOUDY    27  23  85 CALM      29.84F
RAPID CITY     FAIR      22  10  60 CALM      29.86F
$$

  *****  SOME WEATHER IN NEARBY STATES *****

CITY           SKY/WX    TMP DP  RH WIND       PRES   REMARKS
GLASGOW MT     FAIR      24  20  84 NW3       29.75R
GREAT FALLS MT FAIR      44  15  31 SW33G47   29.84F
CHEYENNE WY    FAIR      35  11  36 W25G32    30.00F WCI  23
SCOTTSBLUFF NE FAIR      11   7  84 NW6       30.00F WCI   1
OMAHA NE       CLOUDY    34  23  64 SW12      30.06S
DES MOINES IA  CLOUDY    30  22  72 W8        30.02F WCI  22
DAVENPORT IA   CLOUDY    24  18  77 W9        30.02R WCI  14
CHICAGO IL     FLURRIES  25  17  72 W8G18     29.91S WCI  16
EAU CLAIRE WI  CLOUDY    18  11  74 NW8       29.88F WCI   8
LA CROSSE WI   CLOUDY    24  16  71 W8        29.91F WCI  15
$$

  *****  SOME NATIONAL WEATHER *****

CITY           SKY/WX    TMP DP  RH WIND       PRES   REMARKS
LA GUARDIA NY  CLOUDY    24   9  52 N3        30.11S
RALEIGH NC     MOCLDY    32  25  75 N5        29.99F
ATLANTA GA     MOCLDY    36  29  75 NW9       30.03R
NEW ORLEANS LA CLOUDY    50  42  74 N10       30.13R
OKLAHOMA CITY  FAIR      29  24  82 NW7       30.28R WCI  22
ALBUQUERQUE NM FAIR      25  16  68 N3        30.34R
SALT LAKE CITY FAIR      26  22  84 SE6       30.36F WCI  19
LOS ANGELES CA FAIR      53  30  41 E5        30.11S
BOISE ID       CLOUDY    26  23  88 SE13      30.35F WCI  15
SEATTLE WA     CLOUDY    39  33  79 SE5       30.19F
$$

*** WEATHER ACROSS MANITOBA...SASKATCHEWAN AND ONTARIO ***
                ***ONTARIO***

CITY           SKY/WX    TMP DP  RH WIND       PRES   REMARKS
GERALDTON      FLURRIES  -4  -8  84 N8        29.77S WCI -19
THUNDER BAY    FLURRIES  12   5  73 NW7       29.81S WCI   2
SIOUX LOOKOUT  PTCLDY   -11 -17  77 NW3       29.80F
TORONTO        MOCLDY    18  10  73 SW9       29.92F WCI   6
BIG TROUT LK   FLURRIES -13 -18  77 NW9       29.88S WCI -31
PICKLE LAKE    FLURRIES -15 -20  76 N7G17     29.82S WCI -31
DRYDEN         CLEAR     -6  -9  84 W3        29.81F
KENORA         PTCLDY    -8 -11  84 CALM      29.83F
$$
                *** MANITOBA***

CITY           SKY/WX    TMP DP  RH WIND       PRES   REMARKS
BRANDON        FLURRIES  18  16  93 SE6       29.75F WCI   9
DAUPHIN        FLURRIES  16  14  93 SE6       29.74F WCI   7
ISLAND LAKE    NOT AVBL
PILOT MOUND      N/A     19  18  93 S9          N/A  WCI   9
THE PAS        FLURRIES   5   1  85 E10G17    29.79F WCI -10
THOMPSON       FLURRIES -15 -20  76 VRB2      29.91S
WINNIPEG       FLURRIES   9   5  85 SE8       29.87F WCI  -4
LYNN LAKE      CLOUDY    -4  -6  92 E8        29.81F WCI -19
CHURCHILL      FLURRIES  -8 -13  77 NW8       29.95F WCI -23
GILLAM         FLURRIES -20 -26  76 SW3       29.92F
$$
                ***SASKATCHEWAN***

CITY           SKY/WX    TMP DP  RH WIND       PRES   REMARKS
ESTEVAN        CLOUDY    28  23  80 S9        29.67F WCI  20
KINDERSLEY     CLOUDY    32  25  74 W8        29.64F WCI  25
LLOYDMINSTER   PTCLDY    37  30  75 W14G20    29.56F
PRINCE ALBERT  LGT SNOW  28  27  93 E6        29.58F WCI  22
REGINA         CLOUDY    30  27  86 S7        29.61F WCI  23
YORKTON        FLURRIES  27  25  93 S8        29.62F WCI  18
N. BATTLEFORD  CLOUDY    36  30  80 W9        29.58F
LA RONGE       LGT SNOW  14  10  85 E9        29.63F WCI   2
SASKATOON      LGT RAIN  32  30  93 SW8       29.57F WCI  25
SWIFT CURRENT  CLOUDY    34  21  60 W20       29.64F WCI  22
$$
NOTE: THESE ARE AUTOMATED STATIONS WITH LIMITED QUALITY CONTROL
      "FAIR" INDICATES FEW OR NO CLOUDS BELOW 12,000 FEET WITH NO
      SIGNIFICANT WEATHER AND/OR OBSTRUCTIONS TO VISIBILITY.
      SKY/WX - SKY CONDITION AND SIGNIFICANT WEATHER.
      TMP - AIR TEMPERATURE.    DP   - DEWPOINT TEMPERATURE.
      RH  - RELATIVE HUMIDITY.  PRES - PRESSURE.
      HX  - HEAT INDEX.         WCI  - WIND CHILL INDEX.
$




USA.gov is the U.S. government's official web portal to all federal, state and local government web resources and services.